RH
86 87 92 92 91 97 100 100 95 92 91 90 91 90 88 89 93 93 94 92 90 93 94 96 98 98 99
92 94 85 94 99 100 97 89 90 86 88 93 94 92 90 91 91 93 93 94 95 98 98 94 96 95 88
92 70 98 100 99 88 81 80 86 90 88 96 96 100 100 98 96 93 93 92 96 93 94 92 95 96 98
96 97 97 84 84 86 88 88 95 94 86 100 99 98 99 99 100 100 100 98 96 94 92 97 98 98 94
97 96 92 88 88 92 99 98 96 98 87 93 93 85 84 94 97 98 100 100 100 100 98 98 98 97 96
98 94 86 91 93 100 100 100 97 96 97 92 94 80 85 78 88 100 100 100 100 100 99 99 98 98 98
92 92 98 93 99 96 97 100 100 97 100 99 83 91 78 74 75 100 100 100 100 100 100 100 100 100 99
97 96 96 98 98 100 97 98 91 83 100 100 88 92 80 73 63 65 87 100 100 100 100 100 100 99 99
99 100 90 84 90 99 96 100 92 92 72 100 99 99 82 65 62 69 87 99 98 98 99 99 98 100 99
91 76 73 72 78 93 96 99 100 100 76 100 93 100 94 72 71 66 82 93 99 100 98 99 99 97 96
77 75 77 82 83 87 95 97 96 97 81 99 96 93 100 99 73 67 83 91 93 90 87 96 98 98 98
86 86 88 82 83 86 87 89 94 96 93 97 96 98 97 95 100 74 85 84 95 95 95 93 92 95 98
96 91 89 87 86 87 84 86 83 84 95 96 98 96 100 98 97 87 97 90 91 99 97 100 98 99 98
100 94 91 91 87 91 91 91 90 76 79 95 96 99 96 94 99 88 94 99 96 97 98 97 97 99 99
95 95 92 94 86 89 95 95 96 92 81 78 86 91 76 80 82 88 100 99 97 97 95 98 100 99 88
95 96 96 93 94 92 96 97 97 90 89 88 84 85 75 62 78 96 95 100 98 97 97 100 100 100 100
96 94 95 96 97 95 95 95 93 92 93 92 83 100 100 100 73 94 98 97 99 98 98 98 100 100 98
Wind_Speed
39 40 35 33 33 31 32 32 37 42 37 37 39 38 38 40 41 42 43 43 44 43 42 42 42 41 41
45 42 38 35 33 33 38 42 35 35 36 37 37 38 39 38 40 41 41 42 42 42 43 43 43 42 44
45 46 41 33 37 41 35 37 33 35 38 36 35 36 37 39 39 40 41 41 41 42 42 42 42 43 42
39 35 38 46 39 39 39 39 38 38 44 37 36 37 37 38 39 39 39 38 38 39 40 40 40 41 43
30 39 40 40 37 39 40 43 43 37 43 39 37 47 45 39 37 36 35 35 36 37 38 38 38 39 40
39 38 38 34 40 41 40 43 44 34 32 52 42 47 44 42 38 36 37 38 38 39 40 40 41 41 42
36 33 37 39 39 44 45 41 42 45 39 49 44 46 44 44 42 37 35 35 36 38 39 40 41 42 43
29 34 35 36 39 36 37 40 43 44 31 41 44 43 46 48 34 23 29 31 31 33 35 36 38 40 42
30 29 35 31 26 27 33 34 41 43 41 30 33 44 48 44 31 40 38 33 31 31 33 35 38 40 43
34 35 27 25 24 26 30 31 34 37 33 32 40 33 30 32 44 44 37 36 35 34 32 32 32 37 44
32 29 28 28 27 29 29 28 32 35 35 29 36 36 26 38 50 41 41 42 39 31 27 30 31 30 37
28 31 31 29 29 30 29 27 28 31 29 23 29 32 35 42 44 42 43 43 38 34 42 36 34 32 31
30 31 30 30 31 33 31 29 30 28 26 23 24 29 33 37 41 41 42 47 31 45 46 41 38 35 35
31 31 30 30 32 34 33 33 34 32 28 26 26 29 31 30 30 34 38 33 49 47 44 37 33 24 21
29 30 31 33 33 32 31 32 31 35 35 29 28 29 26 26 28 27 37 41 44 46 41 38 30 19 16
29 31 32 33 33 31 28 30 30 33 33 31 32 34 34 32 22 29 34 38 43 43 36 33 27 24 17
31 31 30 31 30 29 28 29 30 30 31 28 28 29 29 29 32 27 31 34 40 45 36 26 24 22 17
Wind_Direction
304 310 310 310 309 307 305 303 303 303 301 295 293 293 291 287 286 283 280 279 277 276 273 271 268 265 264
309 310 311 312 310 308 307 305 301 301 298 296 297 292 289 287 286 284 282 279 277 275 273 271 270 268 265
301 314 308 312 309 312 309 307 306 303 303 301 297 293 292 291 287 285 283 279 277 274 271 269 267 264 262
298 302 309 311 310 309 310 311 310 310 309 302 299 298 295 292 289 285 281 279 277 274 271 268 265 262 258
306 309 310 310 310 312 308 311 310 309 307 306 304 309 309 303 297 291 285 282 279 276 272 268 265 262 259
310 305 305 306 311 310 310 309 307 314 305 305 309 310 308 310 304 294 290 285 280 275 272 269 265 262 258
304 301 304 311 314 310 308 305 302 305 307 302 313 307 315 314 313 299 291 286 281 277 273 270 267 262 258
303 305 307 306 303 301 302 305 307 313 308 296 314 308 319 319 324 321 312 293 287 281 276 272 268 263 259
306 301 307 308 307 309 310 312 311 314 324 307 313 313 322 328 335 332 321 304 302 292 281 273 268 263 260
308 315 318 322 326 322 320 313 310 313 325 315 317 323 321 321 323 331 333 333 325 312 298 286 278 268 262
315 322 330 330 329 329 328 322 317 311 327 315 309 318 304 303 322 331 333 338 333 323 314 307 299 287 271
324 330 330 331 332 332 331 329 325 322 331 329 310 316 316 310 304 327 336 339 335 325 329 322 310 299 284
328 328 331 331 332 335 334 333 330 337 340 340 330 330 324 306 301 320 330 335 336 327 327 324 318 312 301
327 330 333 333 333 337 336 338 335 340 347 349 344 339 328 329 320 321 337 322 335 335 338 335 335 332 314
334 333 332 332 333 337 338 338 336 341 342 349 350 342 343 342 329 335 338 338 343 343 349 348 6 359 343
335 333 332 333 333 336 338 340 338 342 344 349 346 348 350 353 349 342 345 348 352 352 1 1 15 13 13
335 336 336 334 335 339 341 341 339 342 345 346 348 350 341 329 343 358 349 356 1 0 6 14 24 20 26